When you browse on this site, cookies collect data to enhance your experience and personalize the content and advertising you see.
Visit our Privacy Policy to learn more. By continuing to use the site, you agree to this use of cookies and data.
  • en France
  • Liste des pays
  • À 7 jours
  • Température de l'eau
  • Carte météo
  • Widgets météo
  • user-avatar
    Se connecter

    Météo par heure à Bordeaux

    Ce jour, 26 Mai, Mardi

    Heure Température Précipitation Vent Pression Humidité
    00:00 +17°C° 0 mm 3 m/s 770 mmHg 78%
    01:00 +17°C° 0 mm 3 m/s 770 mmHg 80%
    02:00 +16°C° 0 mm 3 m/s 769 mmHg 82%
    03:00 +16°C° 0 mm 2 m/s 769 mmHg 85%
    04:00 +16°C° 0 mm 3 m/s 769 mmHg 82%
    05:00 +16°C° 0 mm 3 m/s 770 mmHg 80%
    06:00 +17°C° 0 mm 3 m/s 770 mmHg 78%
    07:00 +18°C° 0 mm 3 m/s 770 mmHg 70%
    08:00 +20°C° 0 mm 4 m/s 770 mmHg 63%
    09:00 +22°C° 0 mm 4 m/s 770 mmHg 56%
    10:00 +23°C° 0 mm 4 m/s 770 mmHg 53%
    11:00 +25°C° 0 mm 4 m/s 770 mmHg 49%
    12:00 +27°C° 0 mm 4 m/s 770 mmHg 45%
    13:00 +27°C° 0 mm 4 m/s 769 mmHg 44%
    14:00 +28°C° 0 mm 4 m/s 769 mmHg 44%
    15:00 +28°C° 0 mm 4 m/s 769 mmHg 43%
    16:00 +27°C° 0 mm 4 m/s 769 mmHg 48%
    17:00 +26°C° 0 mm 4 m/s 768 mmHg 52%
    18:00 +25°C° 0 mm 4 m/s 768 mmHg 57%
    19:00 +23°C° 0 mm 4 m/s 768 mmHg 60%
    20:00 +21°C° 0 mm 4 m/s 769 mmHg 64%
    21:00 +20°C° 0 mm 4 m/s 769 mmHg 67%
    22:00 +19°C° 0 mm 4 m/s 769 mmHg 69%
    23:00 +18°C° 0 mm 4 m/s 769 mmHg 71%

    Demain, 27 Mai, Mercredi

    Heure Température Précipitation Vent Pression Humidité
    00:00 +18°C° 0 mm 3 m/s 769 mmHg 73%
    01:00 +17°C° 0 mm 3 m/s 769 mmHg 75%
    02:00 +16°C° 0 mm 3 m/s 769 mmHg 76%
    03:00 +16°C° 0 mm 3 m/s 769 mmHg 78%
    04:00 +16°C° 0 mm 3 m/s 769 mmHg 77%
    05:00 +16°C° 0 mm 3 m/s 769 mmHg 75%
    06:00 +16°C° 0 mm 3 m/s 769 mmHg 74%
    07:00 +18°C° 0 mm 4 m/s 769 mmHg 67%
    08:00 +20°C° 0 mm 4 m/s 769 mmHg 61%
    09:00 +22°C° 0 mm 4 m/s 769 mmHg 54%
    10:00 +23°C° 0 mm 4 m/s 769 mmHg 50%
    11:00 +26°C° 0 mm 4 m/s 768 mmHg 46%
    12:00 +27°C° 0 mm 4 m/s 768 mmHg 41%
    13:00 +28°C° 0 mm 4 m/s 768 mmHg 40%
    14:00 +28°C° 0 mm 4 m/s 768 mmHg 39%
    15:00 +29°C° 0 mm 4 m/s 767 mmHg 39%
    16:00 +28°C° 0 mm 3 m/s 767 mmHg 43%
    17:00 +27°C° 0 mm 3 m/s 767 mmHg 47%
    18:00 +26°C° 0 mm 2 m/s 767 mmHg 51%
    19:00 +25°C° 0 mm 2 m/s 767 mmHg 56%
    20:00 +22°C° 0 mm 3 m/s 767 mmHg 61%
    21:00 +20°C° 0 mm 3 m/s 768 mmHg 66%
    22:00 +19°C° 0 mm 2 m/s 768 mmHg 67%
    23:00 +18°C° 0 mm 2 m/s 768 mmHg 69%

    Après-demain, 28 Mai, Jeudi

    Heure Température Précipitation Vent Pression Humidité
    00:00 +17°C° 0 mm 2 m/s 767 mmHg 70%
    01:00 +17°C° 0 mm 2 m/s 767 mmHg 74%
    02:00 +16°C° 0 mm 2 m/s 767 mmHg 77%
    03:00 +16°C° 0 mm 2 m/s 767 mmHg 80%
    04:00 +16°C° 0 mm 2 m/s 767 mmHg 79%
    05:00 +17°C° 0 mm 2 m/s 767 mmHg 78%
    06:00 +17°C° 0 mm 2 m/s 767 mmHg 77%
    07:00 +19°C° 0 mm 2 m/s 767 mmHg 70%
    08:00 +21°C° 0 mm 2 m/s 767 mmHg 63%
    09:00 +24°C° 0 mm 3 m/s 766 mmHg 57%
    10:00 +26°C° 0 mm 3 m/s 766 mmHg 52%
    11:00 +27°C° 0 mm 3 m/s 766 mmHg 48%
    12:00 +29°C° 0 mm 3 m/s 765 mmHg 44%
    13:00 +29°C° 0 mm 3 m/s 765 mmHg 42%
    14:00 +30°C° 0 mm 3 m/s 765 mmHg 40%
    15:00 +30°C° 0 mm 3 m/s 764 mmHg 38%
    16:00 +29°C° 0 mm 2 m/s 764 mmHg 42%
    17:00 +28°C° 0 mm 2 m/s 764 mmHg 47%
    18:00 +28°C° 0 mm 2 m/s 764 mmHg 51%
    19:00 +26°C° 0 mm 2 m/s 764 mmHg 57%
    20:00 +23°C° 0 mm 2 m/s 764 mmHg 64%
    21:00 +20°C° 0 mm 2 m/s 764 mmHg 70%
    22:00 +20°C° 0 mm 2 m/s 764 mmHg 71%
    23:00 +19°C° 0 mm 2 m/s 764 mmHg 72%

    29 Mai, Vendredi

    Heure Température Précipitation Vent Pression Humidité
    00:00 +19°C° 0 mm 2 m/s 763 mmHg 73%
    01:00 +18°C° 0 mm 2 m/s 763 mmHg 73%
    02:00 +17°C° 0 mm 2 m/s 763 mmHg 73%
    03:00 +17°C° 0 mm 2 m/s 763 mmHg 72%
    04:00 +17°C° 0 mm 2 m/s 763 mmHg 72%
    05:00 +17°C° 0 mm 2 m/s 763 mmHg 72%
    06:00 +18°C° 0 mm 2 m/s 763 mmHg 71%
    07:00 +20°C° 0 mm 2 m/s 763 mmHg 65%
    08:00 +23°C° 0 mm 2 m/s 762 mmHg 59%
    09:00 +26°C° 0 mm 2 m/s 762 mmHg 53%
    10:00 +27°C° 0 mm 2 m/s 762 mmHg 48%
    11:00 +29°C° 0 mm 2 m/s 762 mmHg 44%
    12:00 +31°C° 0 mm 2 m/s 762 mmHg 39%
    13:00 +31°C° 0 mm 2 m/s 761 mmHg 38%
    14:00 +31°C° 0 mm 2 m/s 761 mmHg 37%
    15:00 +31°C° 0 mm 3 m/s 761 mmHg 36%
    16:00 +30°C° 0 mm 3 m/s 760 mmHg 43%
    17:00 +29°C° 0 mm 3 m/s 760 mmHg 49%
    18:00 +28°C° 0 mm 4 m/s 760 mmHg 55%
    19:00 +25°C° 0 mm 3 m/s 760 mmHg 62%
    20:00 +22°C° 0 mm 3 m/s 761 mmHg 69%
    21:00 +20°C° 0 mm 2 m/s 761 mmHg 76%
    22:00 +19°C° 0 mm 2 m/s 761 mmHg 76%
    23:00 +19°C° 0 mm 2 m/s 761 mmHg 77%

    30 Mai, Samedi

    Heure Température Précipitation Vent Pression Humidité
    00:00 +18°C° 0 mm 2 m/s 761 mmHg 78%
    01:00 +17°C° 0 mm 2 m/s 760 mmHg 79%
    02:00 +17°C° 0 mm 2 m/s 760 mmHg 80%
    03:00 +16°C° 0 mm 2 m/s 760 mmHg 82%
    04:00 +16°C° 0 mm 2 m/s 760 mmHg 79%
    05:00 +17°C° 0 mm 2 m/s 761 mmHg 76%
    06:00 +17°C° 0 mm 2 m/s 761 mmHg 73%
    07:00 +19°C° 0 mm 2 m/s 761 mmHg 64%
    08:00 +21°C° 0 mm 2 m/s 761 mmHg 55%
    09:00 +25°C° 0 mm 2 m/s 761 mmHg 46%
    10:00 +26°C° 0 mm 2 m/s 761 mmHg 41%
    11:00 +28°C° 0 mm 2 m/s 761 mmHg 35%
    12:00 +29°C° 0 mm 3 m/s 760 mmHg 30%
    13:00 +30°C° 0 mm 3 m/s 760 mmHg 29%
    14:00 +30°C° 0 mm 2 m/s 760 mmHg 29%
    15:00 +30°C° 0 mm 2 m/s 760 mmHg 29%
    16:00 +29°C° 0 mm 2 m/s 759 mmHg 35%
    17:00 +28°C° 0 mm 2 m/s 759 mmHg 41%
    18:00 +27°C° 0 mm 2 m/s 759 mmHg 48%
    19:00 +25°C° 0 mm 2 m/s 759 mmHg 56%
    20:00 +23°C° 0 mm 2 m/s 760 mmHg 64%
    21:00 +20°C° 0 mm 2 m/s 760 mmHg 72%
    22:00 +19°C° 0 mm 2 m/s 760 mmHg 73%
    23:00 +18°C° 0 mm 2 m/s 760 mmHg 74%

    31 Mai, Dimanche

    Heure Température Précipitation Vent Pression Humidité
    00:00 +19°C° 0 mm 1 m/s 760 mmHg 75%
    01:00 +18°C° 0 mm 1 m/s 760 mmHg 75%
    02:00 +18°C° 0 mm 1 m/s 759 mmHg 74%
    03:00 +16°C° 0 mm 1 m/s 759 mmHg 74%
    04:00 +18°C° 0 mm 1 m/s 759 mmHg 73%
    05:00 +19°C° 0 mm 1 m/s 759 mmHg 71%
    06:00 +19°C° 0 mm 1 m/s 759 mmHg 70%
    07:00 +22°C° 0 mm 1 m/s 759 mmHg 63%
    08:00 +24°C° 0 mm 1 m/s 760 mmHg 57%
    09:00 +27°C° 0 mm 1 m/s 760 mmHg 50%
    10:00 +28°C° 0 mm 1 m/s 759 mmHg 46%
    11:00 +30°C° 0 mm 1 m/s 759 mmHg 41%
    12:00 +31°C° 0 mm 1 m/s 759 mmHg 37%
    13:00 +31°C° 0 mm 1 m/s 759 mmHg 36%
    14:00 +31°C° 0 mm 2 m/s 759 mmHg 35%
    15:00 +31°C° 0 mm 2 m/s 758 mmHg 34%
    16:00 +30°C° 0 mm 2 m/s 758 mmHg 38%
    17:00 +29°C° 0 mm 2 m/s 758 mmHg 43%
    18:00 +28°C° 0 mm 2 m/s 757 mmHg 47%
    19:00 +26°C° 0 mm 2 m/s 758 mmHg 55%
    20:00 +24°C° 0 mm 2 m/s 758 mmHg 62%
    21:00 +21°C° 0 mm 2 m/s 758 mmHg 69%
    22:00 +22°C° 0 mm 1 m/s 758 mmHg 72%
    23:00 +21°C° 0 mm 1 m/s 758 mmHg 75%
    Voir plus